Location: Radom
(51.4061°N, 21.1577°E)
Time: 15:07:14
(UTC+02:00)

ISS - Visible Passes

Search period start: 21 October 2018 00:00
Search period end: 30 October 2018 23:00
Orbit: 403 x 408 km, 51.6° (Epoch: 21 October)

Date Brightness Start Highest point End Pass type
(mag) Time Alt. Az. Time Alt. Az. Time Alt. Az.
27 Oct -0.9 06:16:33 10° S 06:18:36 16° SE 06:20:40 10° ESE visible
29 Oct -1.9 05:07:52 10° SSW 05:10:43 27° SSE 05:13:34 10° E visible
30 Oct -1.4 04:17:22 14° S 04:18:50 18° SE 04:21:11 10° E visible
